Home   Weather   Freistadt   Past weeks

Flag for Austria Past Weather in Freistadt, Upper Austria, Austria — Yesterday and Last 2 Weeks

Now
53 °F

Cool.


Feels Like: 53 °F
Forecast: 51 / 68 °F
Wind: 1 mph from South

Location: Rohrbach

Current Time: Sep 28, 2016 at 10:35:51 AM

Latest Report: Sep 28, 2016 at 10:00 AM


Visibility: N/A

Pressure: 30.41 "Hg (28.42 "Hg at 565m altitude)

Humidity: 90%

Dew Point: 50 °F

Location of FreistadtLocation

Past Weather in Freistadt — Graph

°F

Freistadt Temperature Yesterday

Maximum temperature yesterday: 68 °F (at 3:00 PM)
Minimum temperature yesterday: 46 °F (at 6:00 AM)
Average temperature yesterday: 56 °F

High & Low Weather Summary for the Past Weeks

 TemperatureHumidityPressure
High82 °F (Sep 13, 3:00 PM)100% (Sep 19, 4:00 AM)30.43 "Hg (Sep 19, 4:00 AM)
Low42 °F (Sep 23, 7:00 AM)37% (Sep 13, 4:00 PM)29.78 "Hg (Sep 17, 2:00 AM)
Average58 °F78%30.07 "Hg
* Reported Sep 13 9:00 AM — Sep 28 9:00 AM, Freistadt, Weather by CustomWeather, © 2016

Note: Actual official high and low records may vary slightly from our data, if they occured in-between our weather recording intervals... More about our weather records

Advertising

Freistadt Weather History for the Previous 24 Hours

Scroll right to see more
 ConditionsComfort  
Time TempWeatherWind HumidityBarometerVisibility
9:00 AM
Wed, Sep 28
48 °FCool.No wind94%30.43 "HgN/A
8:00 AM46 °FCool.No wind96%30.43 "HgN/A
5:00 AM47 °FCool.No wind97%30.42 "HgN/A
4:00 AM48 °FCool.No wind96%30.41 "HgN/A
3:00 AM49 °FCool.No wind96%30.42 "HgN/A
2:00 AM50 °FCool.No wind94%30.40 "HgN/A
1:00 AM51 °FCool.1 mph91%30.39 "HgN/A
12:00 AM54 °FCool.No wind88%30.39 "HgN/A
11:00 PM
Tue, Sep 27
55 °FCool.1 mph83%30.38 "HgN/A
10:00 PM57 °FCool.No wind84%30.36 "HgN/A
9:00 PM59 °FCool.1 mph78%30.35 "HgN/A
8:00 PM61 °FCool.1 mph72%30.33 "HgN/A
7:00 PM61 °FCool.1 mph69%30.31 "HgN/A
6:00 PM62 °FMild.1 mph67%30.29 "HgN/A
5:00 PM64 °FMild.2 mph65%30.27 "HgN/A
4:00 PM65 °FMild.3 mph60%30.26 "HgN/A
3:00 PM68 °FMild.2 mph50%30.25 "HgN/A
2:00 PM66 °FMild.1 mph50%30.26 "HgN/A
1:00 PM66 °FMild.1 mph58%30.25 "HgN/A
12:00 PM64 °FMild.1 mph64%30.26 "HgN/A
11:00 AM62 °FCool.1 mph67%30.26 "HgN/A
10:00 AM57 °FCool.1 mph77%30.27 "HgN/A
Weather by CustomWeather, © 2016

See weather overviewHow to use our weather pages